Location: ???? ?????????
(31.1304°N, 31.7111°E)
Time: 11:38:24
(UTC+00:00)

Vanguard 1 - Visible Passes

Search period start: 07 March 2021 00:00
Search period end: 17 March 2021 00:00
Orbit: 649 x 3834 km, 34.2° (Epoch: 06 March)

Date Brightness Start Highest point End Pass type
(mag) Time Alt. Az. Time Alt. Az. Time Alt. Az.
07 Mar 11.9 01:16:48 16° ENE 01:16:48 16° ENE 01:17:41 10° ENE visible
07 Mar 9.3 03:29:30 12° WNW 03:33:32 76° NNE 03:38:48 10° E visible
08 Mar 11.1 01:36:33 27° ENE 01:36:33 27° ENE 01:38:38 10° ENE visible
09 Mar 10.1 01:56:18 46° NE 01:56:18 46° NE 01:59:39 10° E visible
09 Mar 13.5 19:04:35 10° S 19:05:31 11° S 19:05:31 11° S visible
10 Mar 9.3 02:16:04 64° N 02:16:15 65° N 02:20:41 10° E visible
10 Mar 13.4 19:23:13 10° SSW 19:25:35 14° S 19:25:35 14° S visible
11 Mar 9.1 02:35:50 45° WNW 02:37:12 79° NNE 02:41:44 10° E visible
11 Mar 13.4 19:42:50 10° SSW 19:45:42 15° SSW 19:45:42 15° SSW visible
12 Mar 9.1 02:55:39 27° WNW 02:58:04 78° SSW 03:02:42 10° ESE visible
12 Mar 13.2 17:44:09 10° S 17:52:40 15° SSE 17:53:08 15° SE visible
12 Mar 13.4 20:03:03 10° SW 20:05:53 16° SSW 20:05:53 16° SSW visible
13 Mar 12.0 01:02:44 14° E 01:02:44 14° E 01:03:19 10° E visible
13 Mar 9.4 03:15:27 16° W 03:18:54 54° SSW 03:23:31 10° SE visible
13 Mar 12.9 18:02:02 10° S 18:13:23 22° SSE 18:13:23 22° SSE visible
13 Mar 13.5 20:23:44 10° SW 20:26:08 15° SW 20:26:08 15° SW visible
14 Mar 11.3 01:22:35 24° E 01:22:35 24° E 01:24:17 10° E visible
14 Mar 10.0 03:35:38 10° W 03:39:42 35° SSW 03:44:04 10° SE visible
14 Mar 12.7 18:21:12 10° SSW 18:33:40 29° SSE 18:33:40 29° SSE visible
14 Mar 13.5 20:44:47 10° SW 20:46:27 14° SW 20:46:27 14° SW visible
15 Mar 10.4 01:42:26 40° E 01:42:26 40° E 01:45:13 10° ESE visible
15 Mar 13.3 16:24:34 10° SSE 16:32:18 13° SE 16:38:52 10° ESE visible
15 Mar 12.5 18:41:04 10° SSW 18:54:01 36° S 18:54:01 36° S visible
15 Mar 13.6 21:06:09 10° WSW 21:06:48 11° WSW 21:06:48 11° WSW visible
16 Mar 9.4 02:02:20 62° SE 02:02:20 62° SE 02:06:04 10° ESE visible
16 Mar 13.0 16:41:10 10° S 16:53:55 20° SE 17:01:38 13° ESE visible
16 Mar 12.4 19:01:28 10° SW 19:14:25 41° S 19:14:25 41° S visible
